Location: Unnamed
(48.6007°N, 2.4808°E)
Time: 05:07:51
(UTC+01:00)

FENGYUN 1C DEB - Pass Details

Date: 09 December 2023
Orbit: 508 x 828 km, 98.6° (Epoch: 21 February)

Event Time Altitude Azimuth Distance (km) Brightness Sun altitude
Rises 04:42:41 0° 15° (NNE) 3,367 ? -36.5°
Reaches altitude 10° 04:45:02 10° 16° (NNE) 2,453 ? -36.1°
Enters shadow 04:45:31 13° 17° (NNE) 2,265 ? -36.0°
